Regional Weather Roundup
Issued by NWS

Home | Current Version | Previous Version | Text Only | Print | Product List | Glossary On
Versions: 1 2 3 4 5 6 7 8 9 10 11 12 13 14 15 16 17 18 19 20 21 22 23 24 25 26 27 28 29 30 31 32 33 34 35 36 37 38 39 40 41 42 43 44 45 46 47 48 49 50
607
ASUS43 KTOP 242208
RWRKS

WEATHER ROUNDUP FOR KANSAS
NATIONAL WEATHER SERVICE GOODLAND KS
500 PM CDT FRI MAR 24 2017

NOTE:  "FAIR" INDICATES FEW OR NO CLOUDS BELOW 12,000 FEET WITH NO
SIGNIFICANT WEATHER AND/OR OBSTRUCTIONS TO VISIBILITY.

KSZ001>006-013>018-027>032-041>047-242300-
NORTHWEST KANSAS

CITY           SKY/WX    TMP DP  RH WIND       PRES   REMARKS
GOODLAND       LGT SNOW  37  36  96 N25G35    30.03R FOG     WCI  25
HAYS             N/A     51  42  71 N24       29.86R
HILL CITY      CLOUDY    45  42  89 N23G31    29.96R
RUSSELL        MOSUNNY   55  44  66 N25G32    29.82R
$$

KSZ061>065-074>080-084>089-242300-
SOUTHWEST KANSAS

CITY           SKY/WX    TMP DP  RH WIND       PRES   REMARKS
DODGE CITY     LGT RAIN  50  46  86 N22G30    29.83R FOG
ELKHART          N/A     45  30  55 N30         N/A
GARDEN CITY    CLOUDY    45  40  82 N26G36    29.89R
GREAT BEND     CLOUDY    64  47  53 N30G36    29.76R
LIBERAL        CLOUDY    50  39  66 N32G39    29.85R
PRATT          CLOUDY    68  28  22 S6        29.71S
$$

KSZ066>073-081>083-090>101-242300-
SOUTHEAST KANSAS

CITY           SKY/WX    TMP DP  RH WIND       PRES   REMARKS
CHANUTE        CLOUDY    66  56  70 S18G24    29.80R
COFFEYVILLE    CLOUDY    68  58  70 SE22      29.77F
HUTCHINSON     LGT RAIN  69  43  38 N12       29.70F
MEDICINE LODGE   N/A     72  24  16 S8        29.69R
NEWTON         CLOUDY    69  49  48 SE14      29.72F
PARSONS        CLOUDY    67  58  72 SE16G25   29.78F
WICHITA INTL   TSTM      62  59  90 N3        29.71R
WICHITA JABRA  CLOUDY    68  43  40 N6        29.71F
WICHITA MCCONL MOSUNNY   68  53  58 E8        29.70F
WINFIELD       CLOUDY    73  50  44 SE12      29.70F
$$

KSZ007>012-019>026-033>040-048>060-102>105-242300-
NORTHEAST KANSAS

CITY           SKY/WX    TMP DP  RH WIND       PRES   REMARKS
CONCORDIA      CLOUDY    50  45  83 N22G33    29.86R
EMPORIA        CLOUDY    70  56  61 SE15      29.75F
LAWRENCE       CLOUDY    67  59  75 E12       29.82S
MANHATTAN      MOSUNNY   68  54  60 E12       29.76F
MARYSVILLE     CLOUDY    52  46  82 N21G26    29.84F
OLATHE IND     PTSUNNY   63  57  81 SE21      29.83F
OLATHE EXE     CLOUDY    62  60  93 SE12      29.83S
SALINA         CLOUDY    71  50  47 N26       29.75R
TOPEKA BILLARD PTSUNNY   69  58  67 SE10      29.80S
TOPEKA FORBES  PTSUNNY   71  56  58 SE13      29.79F
$$




USA.gov is the U.S. government's official web portal to all federal, state and local government web resources and services.